Regional Weather Roundup
Issued by NWS Northern Indiana

Home | Current Version | Previous Version | Graphics & Text | Print | Product List | Glossary On
Versions: 1 2 3 4 5 6 7 8 9 10 11 12 13 14 15 16 17 18 19 20 21 22 23 24 25 26 27 28 29 30 31 32 33 34 35 36 37 38 39 40 41 42 43 44 45 46 47 48 49 50
000
ASUS43 KIWX 292000
RWRIWX

KIWX WEATHER ROUNDUP
NATIONAL WEATHER SERVICE NORTHERN INDIANA
400 PM EDT WED MAR 29 2017

NOTE: "FAIR" INDICATES FEW OR NO CLOUDS BELOW 12,000 FEET WITH NO
SIGNIFICANT WEATHER AND/OR OBSTRUCTIONS TO VISIBILITY.

* THESE STATIONS ARE NOT UNDER NWS QUALITY CONTROL. THEY ALSO MAY NOT
  REPORT WEATHER SUCH AS PRECIPITATION OR FOG.

INZ001>027-292100-
NORTHERN INDIANA

CITY           SKY/WX    TMP DP  RH WIND       PRES   REMARKS
GARY*          CLOUDY    45  36  70 NE10      30.18F
MICHIGAN CITY* CLOUDY    54  34  47 E3        30.18F
KNOX*          MOSUNNY   55   9  15 E15       30.17F
SOUTH BEND     CLOUDY    55  33  43 E9G20     30.20F
ELKHART*       SUNNY     57  32  38 E13       30.20F
GOSHEN         MOSUNNY   55  34  45 E15       30.19F
MONTICELLO*    PTSUNNY   56  36  46 E12G20    30.12F
ANGOLA*        SUNNY     54  43  66 E13       30.21F
FORT WAYNE     CLOUDY    57  38  48 E21G26    30.19F
PERU/GRISSOM   CLOUDY    58  40  51 E20G26    30.12F

$$
INZ028>050-292100-
CENTRAL INDIANA

CITY           SKY/WX    TMP DP  RH WIND       PRES   REMARKS
LAFAYETTE      MOSUNNY   58  41  53 E18       30.11F
KOKOMO*        MOSUNNY   56  43  61 E18G25    30.14F
MUNCIE*        SUNNY     59  44  57 E15G25    30.13F
INDIANAPOLIS   CLOUDY    58  43  57 E15       30.10F

$$
MIZ043>046-050>051-056>058-064>065-071>073-077>080-292100-
SOUTHWEST LOWER MICHIGAN

CITY           SKY/WX    TMP DP  RH WIND       PRES   REMARKS
BATTLE CREEK   MOSUNNY   54  32  43 E8        30.23F
BENTON HARBOR  MOSUNNY   55  32  41 E14G20    30.20F
COLDWATER*     SUNNY     55  31  39 E7G18     30.22S
HILLSDALE*     MOSUNNY   54  32  43 E12       30.23S
HOLLAND        MOSUNNY   53  34  48 E12       30.24F
GRAND RAPIDS   CLOUDY    52  36  54 E13       30.26S
KALAMAZOO      PTSUNNY   56  28  34 E9        30.23F
STURGIS*       MOSUNNY   55  33  43 E15G21    30.20F
THREE RIVERS*  FAIR      55  31  39 E13       30.22F

$$
OHZ001>008-015>018-024>025-292100-
NORTHWEST OHIO

CITY           SKY/WX    TMP DP  RH WIND       PRES   REMARKS
DEFIANCE       MOSUNNY   54  32  43 E13       30.23R
FINDLAY        MOSUNNY   58  32  37 NE17G23   30.20F
TOLEDO EXPRESS PTSUNNY   53  29  39 NE15      30.25S
TOLEDO METCALF MOSUNNY   52  31  44 E10G18    30.26F
LIMA           SUNNY     54  41  61 NE7       30.19F

$$
AND FOR LAKE MICHIGAN COASTAL AND OPEN LAKE BUOY OBSERVATIONS

STATION/POSITION TEMP    WIND        PRES    VSBY  WAVE
                 AIR SEA DIR/SP/G                  HT/PER
                 (F)     (DEG/KT/KT) (MB)    (MI)  (FT/S)
CALUMET HARBOR    41     360/ 11/ 13 1022.0F
MICHIGAN CITY     41      30/  9/ 10   N/A
BURNS HARBOR      42      60/  9/ 10 1022.7F

$$
&&



USA.gov is the U.S. government's official web portal to all federal, state and local government web resources and services.